This demonstration page uses our WeatherBlox Daily Observations layout. Learn more.

Left ArrowRight Arrow

31.84235, -102.49876

Hourly Observations for July 20, 2022

Temp ( °F °C ) Dew Point ( °F °C ) Humidity (%) Winds ( mph kmh ) Pressure ( in mb ) Visibility ( mi km ) Precip ( " mm )
12:53 am 00:53 Clear 90 32.2 50 10 25 25 S 18 30 29.79 1009 10 16 0.00 0.00
1:53 am 01:53 Clear 88 31.1 52 11.1 29 29 S 16 26 29.79 1009 10 16 0.00 0.00
2:53 am 02:53 Clear 87 30.6 54 12.2 32 32 S 16 26 29.79 1009 10 16 0.00 0.00
3:53 am 03:53 Clear 86 30 54 12.2 33 33 S 13 20 29.79 1009 10 16 0.00 0.00
4:53 am 04:53 Clear 84 28.9 54 12.2 36 36 S 10 17 29.79 1009 10 16 0.00 0.00
5:53 am 05:53 Clear 83 28.3 55 12.8 38 38 S 14 22 29.80 1009 10 16 0.00 0.00
6:53 am 06:53 Clear 82 27.8 56 13.3 41 41 S 12 19 29.81 1009 10 16 0.00 0.00
7:53 am 07:53 Sunny 83 28.3 57 13.9 41 41 SSW 9 15 29.82 1010 10 16 0.00 0.00
8:53 am 08:53 Sunny 86 30 59 15 40 40 SW 12 19 29.85 1011 10 16 0.00 0.00
9:53 am 09:53 Sunny 87 30.6 60 15.6 40 40 VRB 3 6 29.87 1012 10 16 0.00 0.00
10:53 am 10:53 Sunny 88 31.1 60 15.6 39 39 SE 9 15 29.87 1012 10 16 0.00 0.00
11:53 am 11:53 Sunny 91 32.8 60 15.6 35 35 SE 7 11 29.85 1011 10 16 0.00 0.00
12:53 pm 12:53 Sunny 98 36.7 51 10.6 20 20 E 7 11 29.84 1011 10 16 0.00 0.00
1:53 pm 13:53 Sunny 100 37.8 50 10 18 18 ESE 14 22 29.83 1010 10 16 0.00 0.00
2:53 pm 14:53 Sunny 99 37.2 52 11.1 21 21 SE 9 15 29.81 1009 10 16 0.00 0.00
3:53 pm 15:53 Sunny 103 39.4 53 11.7 19 19 undefined N/A 29.78 1009 10 16 0.00 0.00
4:53 pm 16:53 Sunny 104 40 54 12.2 19 19 ESE 17 28 29.76 1008 10 16 0.00 0.00
5:53 pm 17:53 Sunny 105 40.6 50 10 16 16 SE 16 26 29.74 1007 10 16 0.00 0.00
6:53 pm 18:53 Sunny 103 39.4 48 8.9 16 16 SE 13 20 29.72 1007 10 16 0.00 0.00
7:53 pm 19:53 Sunny 101 38.3 48 8.9 17 17 SSE 14 22 29.73 1007 10 16 0.00 0.00
8:53 pm 20:53 Sunny 98 36.7 48 8.9 18 18 SE 16 26 29.75 1007 10 16 0.00 0.00
9:53 pm 21:53 Clear 96 35.6 49 9.4 20 20 SSE 10 17 29.78 1008 10 16 0.00 0.00
10:53 pm 22:53 Clear 94 34.4 50 10 22 22 SSE 12 19 29.81 1009 10 16 0.00 0.00
11:53 pm 23:53 Clear 92 33.3 51 10.6 25 25 SSE 9 15 29.81 1009 10 16 0.00 0.00

Powered by AerisWeather